Location: Ciula Mare
(45.6000°N, 22.8167°E)
Time: 05:38:06
(UTC+00:00)

Atlas Centaur 2 - Pass Details

Date: 03 February 2023
Orbit: 459 x 1295 km, 30.4° (Epoch: 29 March)

Event Time Altitude Azimuth Distance (km) Brightness Sun altitude
Rises 18:08:21 0° 237° (WSW) 4,155 6.6 -26.6°
Reaches altitude 10° 18:11:43 10° 225° (SW) 3,253 5.7 -27.2°
Maximum altitude 18:18:18 26° 173° (S) 2,298 4.3 -28.3°
Enters shadow 18:19:22 26° 162° (SSE) 2,328 4.2 -28.5°
